Andrews, TX

1:36 PM CST on November 24, 2017 (GMT -0600)
Andrews

Weather History for KE11 - January, 2013

Change the Weather History Date:

Sunday, January 20, 2013

  Actual Average (KMAF) Record (KMAF)
Temperature  
Mean Temperature 48 °F -  
Max Temperature 65 °F 57 °F 81 °F (2012)
Min Temperature 30 °F 31 °F 11 °F (1985)
Degree Days  
Heating Degree Days 18    
Moisture  
Dew Point 21 °F    
Average Humidity 42    
Maximum Humidity 66    
Minimum Humidity 14    
Precipitation  
Precipitation 0.00 in - - ()
Sea Level Pressure  
Sea Level Pressure 30.18 in    
Wind  
Wind Speed 5 mph (West)    
Max Wind Speed 14 mph    
Max Gust Speed 17 mph    
Visibility 10 miles    
Events      
Averages and records for this station are not official NWS values.
T = Trace of Precipitation, MM = Missing Value Source: NWS Daily Summary

Daily Weather History Graph

Daily Weather History Graph

Search for Another Location

Airport or City:

Trip Planner

Search our weather history database for the weather conditions in past years. The results will help you decide how hot, cold, wet, or windy it might be!

Date:

Astronomy

Jan. 20, 2013 Rise Set
Actual Time 7:50 AM CST 6:12 PM CST
Civil Twilight 7:23 AM CST 6:38 PM CST
Nautical Twilight 6:54 AM CST 7:08 PM CST
Astronomical Twilight 6:24 AM CST 7:38 PM CST
Moon 1:14 PM CST (1/20) 2:26 AM CST (1/20)
Length of Visible Light 11h 15m
Length of Day
10h 22m
Waxing Gibbous, 66% of the Moon is Illuminated
Jan 20
Waxing Gibbous
Jan 26
Full
Feb 3
Last Quarter
Feb 10
New
Feb 17
First Quarter

Hourly Weather History & Observations

Time (CST) Temp. Windchill Dew Point Humidity Pressure Visibility Wind Dir Wind Speed Gust Speed Precip Events Conditions
12:15 AM 36.0 °F 32.1 °F 21.2 °F 55% 30.26 in 10.0 mi North 4.6 mph - N/A   Clear
12:35 AM 34.9 °F 29.9 °F 21.2 °F 57% 30.26 in 10.0 mi North 5.8 mph - N/A   Clear
12:55 AM 36.7 °F 32.9 °F 21.9 °F 55% 30.26 in 10.0 mi North 4.6 mph - N/A   Clear
1:15 AM 36.3 °F 31.6 °F 22.1 °F 56% 30.25 in 10.0 mi NNW 5.8 mph - N/A   Clear
1:35 AM 37.0 °F 33.3 °F 21.7 °F 54% 30.25 in 10.0 mi NNW 4.6 mph - N/A   Clear
1:55 AM 35.8 °F 30.1 °F 21.7 °F 57% 30.25 in 10.0 mi NNW 6.9 mph - N/A   Clear
2:15 AM 35.2 °F 30.3 °F 21.9 °F 58% 30.25 in 10.0 mi NNW 5.8 mph - N/A   Clear
2:35 AM 36.5 °F 32.7 °F 21.7 °F 55% 30.25 in 10.0 mi NNW 4.6 mph - N/A   Clear
2:55 AM 35.2 °F 31.2 °F 22.1 °F 59% 30.25 in 10.0 mi NNW 4.6 mph - N/A   Clear
3:15 AM 35.2 °F 30.3 °F 21.6 °F 58% 30.25 in 10.0 mi NNW 5.8 mph - N/A   Clear
3:35 AM 36.3 °F 30.8 °F 21.0 °F 54% 30.24 in 10.0 mi NNW 6.9 mph - N/A   Clear
3:55 AM 35.2 °F 30.3 °F 20.8 °F 56% 30.24 in 10.0 mi NW 5.8 mph - N/A   Clear
4:15 AM 33.4 °F 28.1 °F 21.2 °F 61% 30.23 in 10.0 mi NNW 5.8 mph - N/A   Clear
4:35 AM 34.2 °F 29.0 °F 20.8 °F 58% 30.23 in 10.0 mi NW 5.8 mph - N/A   Clear
4:55 AM 32.0 °F 27.5 °F 21.2 °F 64% 30.23 in 10.0 mi NW 4.6 mph - N/A   Clear
5:15 AM 32.0 °F 27.5 °F 21.2 °F 64% 30.23 in 10.0 mi NW 4.6 mph - N/A   Clear
5:35 AM 32.0 °F 26.4 °F 21.0 °F 64% 30.23 in 10.0 mi NW 5.8 mph - N/A   Clear
5:55 AM 31.1 °F 25.4 °F 20.8 °F 66% 30.23 in 10.0 mi NW 5.8 mph - N/A   Clear
6:15 AM 30.9 °F 25.2 °F 20.8 °F 66% 30.23 in 10.0 mi NNW 5.8 mph - N/A   Clear
6:35 AM 32.0 °F 26.4 °F 20.3 °F 62% 30.23 in 10.0 mi NW 5.8 mph - N/A   Clear
6:55 AM 31.6 °F 26.0 °F 20.7 °F 64% 30.23 in 10.0 mi NW 5.8 mph - N/A   Clear
7:15 AM 32.0 °F 25.6 °F 20.3 °F 62% 30.23 in 10.0 mi NNW 6.9 mph - N/A   Clear
7:35 AM 31.6 °F 25.1 °F 20.3 °F 63% 30.23 in 10.0 mi NNW 6.9 mph - N/A   Clear
7:55 AM 32.0 °F 25.6 °F 20.3 °F 62% 30.23 in 10.0 mi NNW 6.9 mph - N/A   Clear
8:15 AM 32.2 °F 26.7 °F 20.7 °F 63% 30.24 in 10.0 mi NW 5.8 mph - N/A   Clear
8:35 AM 31.8 °F 26.2 °F 21.2 °F 65% 30.24 in 10.0 mi NW 5.8 mph - N/A   Clear
8:55 AM 34.0 °F 31.0 °F 22.1 °F 62% 30.24 in 10.0 mi NW 3.5 mph - N/A   Clear
9:15 AM 37.4 °F 33.8 °F 22.3 °F 54% 30.25 in 10.0 mi NNW 4.6 mph - N/A   Clear
9:35 AM 40.6 °F 37.5 °F 22.8 °F 49% 30.25 in 10.0 mi NNW 4.6 mph - N/A   Clear
9:55 AM 43.5 °F - 23.2 °F 45% 30.25 in 10.0 mi Calm Calm - N/A   Clear
10:15 AM 46.0 °F - 23.5 °F 41% 30.26 in 10.0 mi Calm Calm - N/A   Clear
10:35 AM 48.7 °F - 24.1 °F 38% 30.26 in 10.0 mi Calm Calm - N/A   Clear
10:55 AM 50.5 °F - 22.8 °F 34% 30.26 in 10.0 mi Calm Calm - N/A   Clear
11:15 AM 52.3 °F - 23.9 °F 33% 30.25 in 10.0 mi Calm Calm - N/A   Clear
11:35 AM 54.9 °F - 23.5 °F 30% 30.25 in 10.0 mi Calm Calm - N/A   Clear
11:55 AM 56.3 °F - 23.0 °F 28% 30.24 in 10.0 mi Calm Calm - N/A   Clear
12:15 PM 57.2 °F - 23.5 °F 27% 30.21 in 10.0 mi South 3.5 mph - N/A   Clear
12:35 PM 58.6 °F - 22.6 °F 25% 30.20 in 10.0 mi SSW 6.9 mph - N/A   Clear
12:55 PM 60.6 °F - 21.7 °F 22% 30.18 in 10.0 mi WSW 6.9 mph - N/A   Clear
1:15 PM 61.5 °F - 21.4 °F 21% 30.17 in 10.0 mi WSW 6.9 mph - N/A   Clear
1:35 PM 62.2 °F - 21.0 °F 21% 30.15 in 10.0 mi SSW 8.1 mph - N/A   Clear
1:55 PM 63.1 °F - 19.6 °F 19% 30.14 in 10.0 mi WSW 6.9 mph 16.1 mph N/A   Clear
2:15 PM 63.9 °F - 20.1 °F 19% 30.13 in 10.0 mi SSW 5.8 mph - N/A   Clear
2:35 PM 64.8 °F - 19.6 °F 18% 30.12 in 10.0 mi SW 9.2 mph - N/A   Clear
2:55 PM 65.3 °F - 17.4 °F 16% 30.11 in 10.0 mi WSW 4.6 mph - N/A   Clear
3:15 PM 65.8 °F - 16.5 °F 15% 30.11 in 10.0 mi WSW 9.2 mph 16.1 mph N/A   Clear
3:35 PM 65.8 °F - 14.7 °F 14% 30.10 in 10.0 mi SW 12.7 mph - N/A   Clear
3:55 PM 65.5 °F - 15.3 °F 14% 30.10 in 10.0 mi WSW 10.4 mph - N/A   Clear
4:15 PM 65.5 °F - 16.9 °F 15% 30.10 in 10.0 mi WSW 11.5 mph - N/A   Clear
4:35 PM 64.8 °F - 16.7 °F 16% 30.10 in 10.0 mi WSW 13.8 mph 17.3 mph N/A   Clear
4:55 PM 64.4 °F - 17.8 °F 17% 30.09 in 10.0 mi WSW 12.7 mph - N/A   Clear
5:15 PM 63.7 °F - 17.6 °F 17% 30.09 in 10.0 mi WSW 10.4 mph - N/A   Clear
5:35 PM 62.6 °F - 18.7 °F 18% 30.08 in 10.0 mi SW 12.7 mph - N/A   Clear
5:55 PM 60.4 °F - 20.3 °F 21% 30.09 in 10.0 mi SW 8.1 mph - N/A   Clear
6:15 PM 57.6 °F - 20.1 °F 23% 30.09 in 10.0 mi WSW 5.8 mph - N/A   Clear
6:35 PM 55.2 °F - 21.6 °F 27% 30.10 in 10.0 mi Calm Calm - N/A   Clear
6:55 PM 55.6 °F - 19.4 °F 24% 30.10 in 10.0 mi Calm Calm - N/A   Clear
7:15 PM 50.4 °F - 19.9 °F 30% 30.10 in 10.0 mi SSW 3.5 mph - N/A   Clear
7:35 PM 49.1 °F - 22.1 °F 35% 30.10 in 10.0 mi SSW 3.5 mph - N/A   Clear
7:55 PM 46.8 °F - 22.6 °F 39% 30.11 in 10.0 mi SSW 4.6 mph - N/A   Clear
8:15 PM 45.3 °F 43.0 °F 21.2 °F 38% 30.11 in 10.0 mi South 4.6 mph - N/A   Clear
8:35 PM 46.4 °F 43.5 °F 21.2 °F 37% 30.12 in 10.0 mi SSW 5.8 mph - N/A   Clear
8:55 PM 46.2 °F 44.1 °F 21.9 °F 38% 30.12 in 10.0 mi SSW 4.6 mph - N/A   Clear
9:15 PM 45.0 °F 42.6 °F 21.7 °F 40% 30.12 in 10.0 mi SSW 4.6 mph - N/A   Clear
9:35 PM 45.1 °F - 22.8 °F 41% 30.13 in 10.0 mi Calm Calm - N/A   Clear
9:55 PM 42.6 °F 39.9 °F 25.2 °F 50% 30.13 in 10.0 mi SSW 4.6 mph - N/A   Clear
10:15 PM 43.7 °F 40.3 °F 21.4 °F 41% 30.14 in 10.0 mi SSW 5.8 mph - N/A   Clear
10:35 PM 43.2 °F 39.7 °F 21.2 °F 42% 30.14 in 10.0 mi SSW 5.8 mph - N/A   Clear
10:55 PM 43.3 °F 39.2 °F 20.8 °F 41% 30.14 in 10.0 mi SSW 6.9 mph - N/A   Clear
11:15 PM 41.4 °F - 20.7 °F 44% 30.15 in 10.0 mi Calm Calm - N/A   Clear
11:35 PM 41.9 °F 40.0 °F 22.8 °F 47% 30.15 in 10.0 mi SSW 3.5 mph - N/A   Clear
11:55 PM 38.5 °F - 26.1 °F 61% 30.15 in 10.0 mi Calm Calm - N/A   Clear